Terminal Aerodrome Forecast
Issued by NWS

Home | Current Version | Previous Version | Text Only | Print | Product List | Glossary On
Versions: 1 2 3 4 5 6 7 8 9 10 11 12 13 14 15 16 17 18 19 20 21 22 23 24 25 26 27 28 29 30 31 32 33 34 35 36 37 38 39 40 41 42 43 44 45 46 47 48 49 50
000
FTUS43 KMKX 130545
TAFENW
TAF
KENW 130545Z 1306/1406 29010KT 6SM BR SCT010 BKN050
      TEMPO 1307/1310 5SM BR BKN010
     FM131000 28005KT 3SM BR SCT015
     FM131400 30008KT P6SM SCT025
     FM131800 28012G21KT P6SM SCT050=

USA.gov is the U.S. government's official web portal to all federal, state and local government web resources and services.